[[{"header":{"parameterUnit":"m.s-1","parameterCategory":2,"la1":30.2992,"la2":30.254,"lo1":-89.0895,"lo2":-89.0443,"dy":0.0025,"dx":0.0025,"nx":19,"ny":19,"refTime":"2026-03-24T21:00:00:Z","depth":"0","parameterNumber":2,"parameterNumberName":"U-component_of_CURRENTS"},"data":[0,0,0,-0.2114,-0.2115,-0.221,-0.2211,-0.2343,-0.2344,0,0,0,0,0,0,0,0,0,0,0,-0.2075,-0.2076,-0.2114,-0.2116,-0.221,-0.2211,-0.2343,-0.2344,0,0,0,0,0,0,0,0,0,0,0,-0.2075,-0.2076,-0.2076,-0.2116,-0.221,-0.2211,-0.2343,-0.2271,0,0,0,0,0,0,0,0,0,0,-0.2179,-0.2131,-0.2075,-0.2076,-0.2116,-0.221,-0.2211,-0.2268,-0.2275,-0.23,0,-0.2304,0,-0.2325,-0.2352,-0.2353,0,0,0,-0.2127,-0.2124,-0.2155,-0.2076,-0.2117,-0.221,-0.2171,-0.2272,-0.2281,-0.231,-0.2306,-0.2311,-0.2328,-0.2353,-0.2354,-0.2327,-0.2326,0,0,-0.2121,-0.2093,-0.2149,-0.216,-0.2129,-0.2168,-0.2174,-0.2277,-0.2278,-0.2306,-0.2314,-0.233,-0.2354,-0.2355,-0.2328,-0.2327,0,0,0,-0.2099,-0.2088,-0.2117,-0.2155,-0.217,-0.217,-0.2177,-0.2274,-0.2284,-0.2316,-0.2331,-0.2354,-0.2356,-0.233,-0.2328,-0.2248,0,0,0,-0.2096,-0.2075,-0.2114,-0.2098,-0.2168,-0.222,-0.217,-0.2277,-0.2289,-0.2331,-0.2354,-0.2357,-0.2331,-0.2329,-0.2253,-0.2279,0,0,0,-0.2073,-0.2073,-0.2081,-0.2096,-0.2134,-0.2219,-0.2236,-0.228,-0.2299,-0.2353,-0.2357,-0.2332,-0.2329,-0.2257,-0.2285,-0.2278,0,0,0,-0.2046,-0.2046,-0.208,-0.2082,-0.2133,-0.2152,-0.2236,-0.2279,-0.2319,-0.2355,-0.2331,-0.2328,-0.2259,-0.2288,-0.2281,-0.2135,-0.211,0,0,-0.2031,-0.2043,-0.2045,-0.2078,-0.2086,-0.2141,-0.2128,-0.2231,-0.2277,-0.2303,-0.2303,-0.2251,-0.2285,-0.2279,-0.1971,-0.1952,0,0,0,-0.2031,-0.2028,-0.2035,-0.2051,-0.2078,-0.2097,-0.2161,-0.216,-0.2184,-0.2286,-0.2216,-0.224,-0.2239,-0.2154,-0.2138,-0.2064,-0.2315,-0.2315,-0.2315,-0.1965,-0.1993,-0.1993,-0.2021,-0.2032,-0.2062,-0.2068,-0.2076,-0.2114,-0.2083,-0.2145,-0.2055,-0.1956,-0.1944,-0.1866,-0.208,-0.2079,-0.2079,-0.2079,-0.1936,-0.1935,-0.1969,-0.1982,-0.2,-0.1994,-0.1992,-0.2003,-0.1991,-0.2013,-0.2014,-0.2037,-0.1922,-0.1846,-0.2073,-0.2074,-0.2075,-0.2075,-0.2076,-0.1887,-0.1892,-0.1915,-0.1942,-0.1958,-0.1977,-0.1983,-0.1987,-0.1967,-0.1964,-0.1906,-0.1905,-0.1872,-0.1962,-0.1962,-0.1962,-0.1962,-0.1962,-0.1962,-0.1828,-0.1854,-0.1861,-0.1904,-0.1923,-0.196,-0.1988,-0.1971,-0.1897,-0.1847,-0.1845,-0.1799,-0.2021,-0.2065,-0.1962,-0.1962,-0.1962,-0.1962,-0.1962,-0.1749,-0.1779,-0.1787,-0.1808,-0.1873,-0.1865,-0.1928,-0.1824,-0.1809,-0.1722,-0.1585,-0.1773,-0.1809,-0.1819,-0.1857,-0.1709,-0.1709,-0.1709,-0.1708,-0.1685,-0.1707,-0.1711,-0.1741,-0.1793,-0.1818,-0.169,-0.1604,-0.1478,-0.1384,-0.144,-0.1384,-0.1398,-0.141,-0.1429,-0.146,-0.1214,-0.1214,-0.1213,-0.1618,-0.164,-0.1618,-0.1683,-0.1749,-0.1729,-0.1531,-0.1316,-0.1164,-0.1194,-0.1365,-0.1386,-0.131,-0.1338,-0.1366,-0.14,-0.1456,0,0]},{"header":{"parameterUnit":"m.s-1","parameterCategory":2,"la1":30.2992,"la2":30.254,"lo1":-89.0895,"lo2":-89.0443,"dy":0.0025,"dx":0.0025,"nx":19,"ny":19,"refTime":"2026-03-24T21:00:00:Z","depth":"0","parameterNumber":3,"parameterNumberName":"V-component_of_CURRENTS"},"data":[0,0,0,-0.0358,-0.0357,-0.0285,-0.0284,-0.004,-0.0038,0,0,0,0,0,0,0,0,0,0,0,-0.0377,-0.0377,-0.0358,-0.0357,-0.0285,-0.0284,-0.004,-0.0038,0,0,0,0,0,0,0,0,0,0,0,-0.0377,-0.0377,-0.0377,-0.0357,-0.0285,-0.0284,-0.0041,-0.0128,0,0,0,0,0,0,0,0,0,0,-0.0214,-0.0268,-0.0377,-0.0377,-0.0356,-0.0285,-0.0284,-0.0133,-0.0122,-0.0037,0,-0.004,0,-0.0041,-0.002,-0.0019,0,0,0,-0.0334,-0.0277,-0.0257,-0.0377,-0.0356,-0.0285,-0.0311,-0.0128,-0.0115,-0.0021,-0.0037,-0.0029,-0.0037,-0.0018,-0.0017,0.0209,0.0209,0,0,-0.0338,-0.0354,-0.0267,-0.025,-0.0352,-0.0313,-0.0309,-0.0122,-0.0111,-0.0036,-0.0024,-0.0033,-0.0016,-0.0014,0.0208,0.0209,0,0,0,-0.0365,-0.0357,-0.0344,-0.0259,-0.0262,-0.0312,-0.0306,-0.0119,-0.0116,-0.0021,-0.003,-0.0015,-0.0012,0.0208,0.0209,0.0052,0,0,0,-0.0366,-0.0375,-0.0346,-0.0354,-0.0268,-0.0213,-0.0308,-0.0128,-0.0108,-0.0031,-0.0015,-0.0009,0.0207,0.0208,0.0055,0.0017,0,0,0,-0.0378,-0.0376,-0.0373,-0.0355,-0.0336,-0.0217,-0.0202,-0.0125,-0.0113,-0.0019,-0.0008,0.0207,0.0208,0.0058,0.0022,0.0081,0,0,0,-0.0388,-0.0408,-0.0373,-0.0392,-0.0337,-0.0302,-0.0203,-0.0155,-0.0086,-0.0014,0.0207,0.0208,0.0059,0.0025,0.0082,0.0172,0.0172,0,0,-0.0424,-0.0412,-0.0424,-0.0393,-0.039,-0.031,-0.0274,-0.0145,-0.0028,0.016,0.0164,0.0054,0.0023,0.0081,0.024,0.0238,0,0,0,-0.0443,-0.0452,-0.0444,-0.0433,-0.039,-0.0333,-0.0224,-0.0159,-0.0017,0.0015,0.0123,0.0111,0.0151,0.021,0.0209,0.0328,0.0214,0.0214,0.0214,-0.0499,-0.0484,-0.0497,-0.0466,-0.0432,-0.0335,-0.0277,-0.0145,-0.0051,-0.0009,0.0031,0.0039,0.0098,0.01,0.0219,0.0073,0.0073,0.0073,0.0072,-0.056,-0.0572,-0.0533,-0.0543,-0.0472,-0.0424,-0.0286,-0.0228,-0.0085,-0.0034,0.0013,0.0102,0.0089,0.0219,0.0063,0.0065,0.0066,0.0067,0.0067,-0.0602,-0.0607,-0.0608,-0.0606,-0.0565,-0.0477,-0.0387,-0.0299,-0.0176,-0.0154,0.0032,0.0036,0.0116,-0.0101,-0.0101,-0.0101,-0.0101,-0.0101,-0.0101,-0.0649,-0.0648,-0.0678,-0.0667,-0.0657,-0.0595,-0.0441,-0.0336,-0.0162,-0.0074,-0.0071,0.016,-0.0011,-0.0043,-0.01,-0.01,-0.0101,-0.0101,-0.0101,-0.0709,-0.0709,-0.0756,-0.0764,-0.0722,-0.0592,-0.0481,-0.0207,-0.0098,0.001,0.0199,0.0007,0.0096,0.01,0.0076,0.0053,0.0053,0.0053,0.0053,-0.0747,-0.0752,-0.0808,-0.0814,-0.0762,-0.0588,-0.0287,-0.005,0.0197,0.0315,0.0326,0.0357,0.0345,0.0451,0.0447,0.0432,0.05,0.0501,0.0502,-0.0782,-0.0799,-0.0834,-0.0834,-0.0768,-0.0516,-0.0146,0.0232,0.049,0.0528,0.047,0.0451,0.0501,0.0474,0.0645,0.0629,0.0607,0,0]}],[{"header":{"parameterUnit":"m.s-1","parameterCategory":2,"la1":30.2992,"la2":30.254,"lo1":-89.0895,"lo2":-89.0443,"dy":0.0025,"dx":0.0025,"nx":19,"ny":19,"refTime":"2026-03-24T21:00:00:Z","depth":"2","parameterNumber":2,"parameterNumberName":"U-component_of_CURRENTS"},"data":[0,0,0,-0.1892,-0.1894,-0.1978,-0.1978,-0.2061,-0.2062,0,0,0,0,0,0,0,0,0,0,0,-0.1852,-0.1853,-0.1892,-0.1894,-0.1978,-0.1978,-0.2061,-0.2062,0,0,0,0,0,0,0,0,0,0,0,-0.1852,-0.1853,-0.1853,-0.1894,-0.1977,-0.1978,-0.2061,-0.2004,0,0,0,0,0,0,0,0,0,0,-0.1925,-0.1888,-0.1853,-0.1853,-0.1895,-0.1977,-0.1978,-0.2001,-0.2007,-0.2016,0,-0.2023,0,-0.2049,-0.2067,-0.2067,0,0,0,-0.1894,-0.1883,-0.1912,-0.1853,-0.1896,-0.1977,-0.194,-0.2005,-0.2011,-0.2024,-0.2025,-0.2028,-0.205,-0.2067,-0.2068,-0.2006,-0.2005,0,0,-0.189,-0.1864,-0.1907,-0.1915,-0.191,-0.1937,-0.1942,-0.2009,-0.2009,-0.2025,-0.2031,-0.2052,-0.2068,-0.2068,-0.2007,-0.2005,0,0,0,-0.1876,-0.1861,-0.1888,-0.1911,-0.1931,-0.194,-0.1946,-0.2005,-0.2016,-0.2032,-0.2053,-0.2068,-0.2069,-0.2008,-0.2006,-0.1974,0,0,0,-0.1873,-0.1853,-0.1886,-0.1871,-0.193,-0.1972,-0.194,-0.2011,-0.202,-0.2052,-0.2068,-0.207,-0.201,-0.2007,-0.1978,-0.2001,0,0,0,-0.185,-0.1851,-0.186,-0.187,-0.1908,-0.1972,-0.1987,-0.2014,-0.2033,-0.2067,-0.207,-0.2011,-0.2008,-0.1982,-0.2005,-0.1995,0,0,0,-0.1823,-0.1823,-0.1859,-0.186,-0.1907,-0.1922,-0.1987,-0.2015,-0.2039,-0.2069,-0.2009,-0.2007,-0.1983,-0.2008,-0.1997,-0.186,-0.184,0,0,-0.1807,-0.182,-0.182,-0.1855,-0.1864,-0.1912,-0.1898,-0.1969,-0.199,-0.199,-0.1989,-0.1977,-0.2005,-0.1995,-0.169,-0.1675,0,0,0,-0.1804,-0.1801,-0.1808,-0.1826,-0.1851,-0.187,-0.1916,-0.1915,-0.1917,-0.1991,-0.1925,-0.1944,-0.194,-0.1859,-0.1845,-0.1993,-0.1993,-0.1993,-0.1993,-0.1742,-0.1767,-0.1766,-0.1793,-0.1803,-0.1834,-0.1839,-0.1837,-0.1861,-0.183,-0.1878,-0.1799,-0.1706,-0.1696,-0.1813,-0.1813,-0.1813,-0.1812,-0.1812,-0.171,-0.1708,-0.174,-0.1752,-0.1775,-0.1771,-0.1774,-0.1785,-0.1768,-0.178,-0.1776,-0.1779,-0.168,-0.1809,-0.1809,-0.181,-0.181,-0.1811,-0.1811,-0.1664,-0.1668,-0.169,-0.1713,-0.1731,-0.1755,-0.1758,-0.1771,-0.1758,-0.1757,-0.1678,-0.1677,-0.1835,-0.1751,-0.1751,-0.1751,-0.1751,-0.1751,-0.1751,-0.161,-0.1632,-0.1637,-0.1676,-0.169,-0.1722,-0.1758,-0.1746,-0.1687,-0.1646,-0.1644,-0.1779,-0.1781,-0.183,-0.1751,-0.1751,-0.1751,-0.1751,-0.1751,-0.1533,-0.1563,-0.1561,-0.1576,-0.1616,-0.1582,-0.167,-0.159,-0.1586,-0.1513,-0.157,-0.1574,-0.1586,-0.1593,-0.1636,-0.1512,-0.1512,-0.1512,-0.1512,-0.1473,-0.1493,-0.1475,-0.1479,-0.1494,-0.1505,-0.1384,-0.1327,-0.1325,-0.1295,-0.1305,-0.1262,-0.1275,-0.1269,-0.1285,-0.1322,-0.1116,-0.1116,-0.1115,-0.1408,-0.1422,-0.1377,-0.1405,-0.1419,-0.1372,-0.1189,-0.1002,-0.0947,-0.1104,-0.1283,-0.1476,-0.1437,-0.1449,-0.1463,-0.1479,-0.1548,0,0]},{"header":{"parameterUnit":"m.s-1","parameterCategory":2,"la1":30.2992,"la2":30.254,"lo1":-89.0895,"lo2":-89.0443,"dy":0.0025,"dx":0.0025,"nx":19,"ny":19,"refTime":"2026-03-24T21:00:00:Z","depth":"2","parameterNumber":3,"parameterNumberName":"V-component_of_CURRENTS"},"data":[0,0,0,-0.0442,-0.0441,-0.0389,-0.0389,-0.0249,-0.0247,0,0,0,0,0,0,0,0,0,0,0,-0.0458,-0.0458,-0.0442,-0.0441,-0.0389,-0.0389,-0.0249,-0.0247,0,0,0,0,0,0,0,0,0,0,0,-0.0458,-0.0458,-0.0458,-0.0441,-0.039,-0.0389,-0.0249,-0.0303,0,0,0,0,0,0,0,0,0,0,-0.0361,-0.0394,-0.0458,-0.0458,-0.0441,-0.039,-0.0389,-0.0307,-0.03,-0.0256,0,-0.0257,0,-0.0254,-0.0238,-0.0237,0,0,0,-0.0427,-0.04,-0.0387,-0.0458,-0.0441,-0.039,-0.0409,-0.0303,-0.0296,-0.0246,-0.0255,-0.0251,-0.0252,-0.0237,-0.0236,-0.0129,-0.0129,0,0,-0.043,-0.0442,-0.0392,-0.0382,-0.0437,-0.0411,-0.0407,-0.0299,-0.0294,-0.0255,-0.0248,-0.0249,-0.0236,-0.0235,-0.0129,-0.0129,0,0,0,-0.0448,-0.0444,-0.0434,-0.0387,-0.0387,-0.0409,-0.0406,-0.0298,-0.0296,-0.0246,-0.0248,-0.0235,-0.0233,-0.0129,-0.0129,-0.0193,0,0,0,-0.0449,-0.0456,-0.0436,-0.0442,-0.039,-0.0353,-0.0407,-0.0303,-0.0291,-0.0248,-0.0235,-0.0232,-0.0129,-0.0129,-0.0192,-0.0226,0,0,0,-0.0458,-0.0456,-0.0454,-0.0443,-0.0427,-0.0355,-0.0346,-0.0301,-0.0292,-0.0237,-0.0231,-0.0129,-0.0129,-0.019,-0.0223,-0.0179,0,0,0,-0.0466,-0.0487,-0.0455,-0.0476,-0.0428,-0.0412,-0.0347,-0.0322,-0.0283,-0.0234,-0.0129,-0.0129,-0.019,-0.0221,-0.0179,-0.0133,-0.0133,0,0,-0.0503,-0.0492,-0.0506,-0.0476,-0.0481,-0.0417,-0.0397,-0.032,-0.0259,-0.0157,-0.0155,-0.0192,-0.0223,-0.0179,-0.0123,-0.0123,0,0,0,-0.0524,-0.0532,-0.0529,-0.0522,-0.0493,-0.0447,-0.0376,-0.0328,-0.0244,-0.0237,-0.017,-0.0187,-0.0158,-0.0128,-0.0128,-0.0128,-0.0128,-0.0128,-0.0128,-0.0575,-0.0565,-0.0582,-0.0559,-0.0536,-0.046,-0.0415,-0.0327,-0.0269,-0.0241,-0.0223,-0.0215,-0.0185,-0.0184,-0.02,-0.02,-0.02,-0.0201,-0.0201,-0.0632,-0.0647,-0.0617,-0.0632,-0.0573,-0.054,-0.0427,-0.0378,-0.0279,-0.0253,-0.0219,-0.0178,-0.0188,-0.0205,-0.0204,-0.0204,-0.0203,-0.0203,-0.0203,-0.0669,-0.0676,-0.068,-0.0687,-0.0657,-0.0586,-0.0522,-0.0439,-0.0334,-0.0312,-0.0212,-0.021,-0.0242,-0.0273,-0.0273,-0.0273,-0.0273,-0.0273,-0.0273,-0.0709,-0.0712,-0.0745,-0.0743,-0.0744,-0.0701,-0.0576,-0.0495,-0.035,-0.0271,-0.0269,-0.0238,-0.0235,-0.0243,-0.0273,-0.0273,-0.0273,-0.0273,-0.0273,-0.0765,-0.0766,-0.082,-0.0837,-0.0831,-0.0797,-0.0666,-0.0456,-0.0348,-0.0261,-0.0217,-0.0219,-0.018,-0.0179,-0.0184,-0.0196,-0.0196,-0.0196,-0.0196,-0.0801,-0.0807,-0.0883,-0.0918,-0.0914,-0.084,-0.0686,-0.046,-0.0262,-0.0185,-0.0186,-0.0182,-0.0185,-0.0146,-0.0146,-0.0149,-0.0153,-0.0153,-0.0153,-0.0836,-0.0858,-0.0919,-0.0955,-0.0955,-0.0874,-0.0721,-0.046,-0.0221,-0.0155,-0.0215,-0.0186,-0.0182,-0.0186,-0.0125,-0.0125,-0.013,0,0]}],[{"header":{"parameterUnit":"m.s-1","parameterCategory":2,"la1":30.2992,"la2":30.254,"lo1":-89.0895,"lo2":-89.0443,"dy":0.0025,"dx":0.0025,"nx":19,"ny":19,"refTime":"2026-03-24T21:00:00:Z","depth":"4","parameterNumber":2,"parameterNumberName":"U-component_of_CURRENTS"},"data":[0,0,0,-0.1418,-0.142,-0.1552,-0.1552,-0.1519,-0.1518,0,0,0,0,0,0,0,0,0,0,0,-0.1365,-0.1366,-0.1417,-0.1421,-0.1552,-0.1552,-0.1519,-0.1518,0,0,0,0,0,0,0,0,0,0,0,-0.1365,-0.1366,-0.1367,-0.1421,-0.1551,-0.1552,-0.1519,-0.1469,0,0,0,0,0,0,0,0,0,0,-0.1366,-0.1356,-0.1366,-0.1367,-0.1422,-0.1551,-0.1552,-0.1469,-0.1472,-0.1403,0,-0.143,0,-0.1473,-0.1511,-0.1511,0,0,0,-0.1416,-0.1354,-0.1383,-0.1367,-0.1423,-0.1551,-0.1491,-0.1472,-0.1475,-0.1406,-0.1431,-0.1431,-0.1473,-0.1511,-0.151,-0.1391,-0.139,0,0,-0.1409,-0.1389,-0.1382,-0.1386,-0.1461,-0.1487,-0.1495,-0.1476,-0.1479,-0.1431,-0.1432,-0.1472,-0.151,-0.1509,-0.1392,-0.1391,0,0,0,-0.1391,-0.1384,-0.1418,-0.1385,-0.1426,-0.1491,-0.1501,-0.1481,-0.1491,-0.1432,-0.1472,-0.1509,-0.1508,-0.1392,-0.1391,-0.1454,0,0,0,-0.1387,-0.1374,-0.1415,-0.1404,-0.1427,-0.1485,-0.1505,-0.1493,-0.1493,-0.1472,-0.1509,-0.1507,-0.1393,-0.1392,-0.1454,-0.1463,0,0,0,-0.1359,-0.1372,-0.1388,-0.1403,-0.1463,-0.1487,-0.1498,-0.1495,-0.1515,-0.1511,-0.1507,-0.1393,-0.1392,-0.1453,-0.1462,-0.1448,0,0,0,-0.1332,-0.1343,-0.1387,-0.1406,-0.1462,-0.1499,-0.1499,-0.1531,-0.1531,-0.1509,-0.1393,-0.1391,-0.1453,-0.1462,-0.1448,-0.1256,0,0,0,-0.1322,-0.1341,-0.1349,-0.1392,-0.1424,-0.1481,-0.1497,-0.1506,-0.1476,-0.1385,-0.1385,-0.1454,-0.1462,-0.1448,-0.1174,0,0,0,0,-0.133,-0.1336,-0.1352,-0.1388,-0.1429,-0.1471,-0.1498,-0.1497,-0.1469,-0.1472,-0.1407,-0.1409,-0.1399,-0.1284,-0.1385,-0.1385,-0.1385,-0.1385,-0.1385,-0.1284,-0.1313,-0.1329,-0.1369,-0.1398,-0.1457,-0.148,-0.1468,-0.1449,-0.1442,-0.1427,-0.141,-0.1287,-0.1396,-0.1397,-0.1397,-0.1397,-0.1397,-0.1397,-0.1256,-0.1259,-0.131,-0.134,-0.139,-0.1413,-0.1444,-0.1463,-0.1443,-0.1431,-0.1419,-0.1316,-0.1402,-0.1401,-0.1401,-0.14,-0.14,-0.1399,-0.1399,-0.1211,-0.1216,-0.1257,-0.1306,-0.1354,-0.1407,-0.1412,-0.1459,-0.1465,-0.1474,-0.131,-0.1426,-0.1458,-0.1462,-0.1462,-0.1462,-0.1462,-0.1461,-0.1461,-0.1145,-0.1183,-0.1206,-0.1271,-0.13,-0.1344,-0.1403,-0.1391,-0.1425,-0.1325,-0.1473,-0.143,-0.1428,-0.1458,-0.1461,-0.1461,-0.1461,-0.1461,-0.1461,-0.1062,-0.1104,-0.1118,-0.1149,-0.1198,-0.1209,-0.1307,-0.1246,-0.1217,-0.1157,-0.1235,-0.1246,-0.1196,-0.1199,-0.122,-0.1153,-0.115,-0.1148,0,-0.1,-0.1024,-0.1021,-0.1024,-0.1014,-0.1102,-0.1008,-0.1022,-0.1052,-0.1019,-0.121,-0.13,-0.1306,-0.1253,-0.1252,-0.1275,0,0,0,-0.0939,-0.0951,-0.0907,-0.0928,-0.0905,-0.0894,-0.0966,-0.091,-0.1078,-0.0979,-0.1086,-0.1102,-0.1311,-0.146,-0.141,-0.1408,-0.1451,0,0]},{"header":{"parameterUnit":"m.s-1","parameterCategory":2,"la1":30.2992,"la2":30.254,"lo1":-89.0895,"lo2":-89.0443,"dy":0.0025,"dx":0.0025,"nx":19,"ny":19,"refTime":"2026-03-24T21:00:00:Z","depth":"4","parameterNumber":3,"parameterNumberName":"V-component_of_CURRENTS"},"data":[0,0,0,-0.0387,-0.0387,-0.0382,-0.0382,-0.0405,-0.0405,0,0,0,0,0,0,0,0,0,0,0,-0.0391,-0.0391,-0.0387,-0.0387,-0.0382,-0.0382,-0.0405,-0.0405,0,0,0,0,0,0,0,0,0,0,0,-0.0391,-0.0391,-0.0391,-0.0387,-0.0382,-0.0382,-0.0405,-0.04,0,0,0,0,0,0,0,0,0,0,-0.04,-0.0401,-0.0391,-0.0391,-0.0387,-0.0382,-0.0382,-0.04,-0.04,-0.0417,0,-0.0421,0,-0.0416,-0.0408,-0.0408,0,0,0,-0.0382,-0.04,-0.0401,-0.0391,-0.0387,-0.0382,-0.0383,-0.04,-0.0401,-0.0418,-0.0421,-0.0422,-0.0416,-0.0408,-0.0409,-0.0439,-0.0439,0,0,-0.0382,-0.0388,-0.04,-0.0402,-0.0393,-0.0383,-0.0383,-0.04,-0.0405,-0.0421,-0.0422,-0.0417,-0.0409,-0.0409,-0.0439,-0.0439,0,0,0,-0.0386,-0.0389,-0.0388,-0.0401,-0.0399,-0.0383,-0.0383,-0.0404,-0.0404,-0.0422,-0.0417,-0.0409,-0.0409,-0.0439,-0.0439,-0.0409,0,0,0,-0.0386,-0.0391,-0.0388,-0.0391,-0.0399,-0.0397,-0.0386,-0.0403,-0.0404,-0.0417,-0.0409,-0.041,-0.0439,-0.0439,-0.0409,-0.0436,0,0,0,-0.039,-0.0391,-0.0393,-0.0391,-0.0391,-0.0397,-0.0397,-0.0402,-0.0401,-0.0408,-0.041,-0.0439,-0.0439,-0.041,-0.0436,-0.0415,0,0,0,-0.0392,-0.0413,-0.0393,-0.0418,-0.0391,-0.0401,-0.0397,-0.0408,-0.0416,-0.0409,-0.0439,-0.0439,-0.041,-0.0436,-0.0415,-0.0439,0,0,0,-0.0423,-0.0417,-0.0433,-0.0415,-0.0435,-0.0401,-0.0405,-0.0413,-0.0421,-0.0434,-0.0435,-0.0409,-0.0436,-0.0415,-0.0445,0,0,0,0,-0.0446,-0.0455,-0.0459,-0.0465,-0.0459,-0.0439,-0.0429,-0.0409,-0.0404,-0.0426,-0.0419,-0.0439,-0.0425,-0.0441,-0.0439,-0.0439,-0.0439,-0.0439,-0.0439,-0.0483,-0.0483,-0.0507,-0.0502,-0.05,-0.0464,-0.0441,-0.0415,-0.0412,-0.0398,-0.042,-0.0399,-0.0414,-0.0406,-0.0406,-0.0406,-0.0405,-0.0405,-0.0405,-0.0527,-0.0542,-0.0536,-0.0562,-0.0534,-0.0528,-0.0462,-0.0432,-0.0392,-0.0396,-0.0382,-0.0417,-0.0403,-0.0403,-0.0404,-0.0404,-0.0404,-0.0404,-0.0404,-0.0547,-0.0556,-0.0574,-0.0604,-0.0603,-0.0568,-0.0541,-0.0479,-0.0408,-0.0388,-0.0401,-0.0391,-0.0386,-0.0371,-0.0371,-0.0371,-0.0371,-0.0371,-0.0371,-0.0562,-0.0579,-0.0622,-0.0646,-0.0668,-0.066,-0.0591,-0.0545,-0.0462,-0.0406,-0.0393,-0.0388,-0.0389,-0.0385,-0.0371,-0.0371,-0.0371,-0.0371,-0.0371,-0.059,-0.0605,-0.0669,-0.0706,-0.0748,-0.0731,-0.0677,-0.056,-0.0504,-0.0437,-0.0398,-0.0396,-0.0416,-0.0417,-0.0414,-0.0409,-0.0409,-0.0409,0,-0.0609,-0.062,-0.0716,-0.0779,-0.0806,-0.0773,-0.0697,-0.0622,-0.0507,-0.0501,-0.0507,-0.0469,-0.0465,-0.0495,-0.0495,-0.0498,0,0,0,-0.063,-0.0659,-0.0732,-0.0801,-0.0835,-0.0736,-0.0672,-0.0627,-0.0525,-0.0467,-0.0416,-0.0414,-0.0439,-0.0372,-0.0399,-0.0401,-0.0396,0,0]}]]